Weather History for KBTV - December, 2013

Change the Weather History Date:

Thursday, December 5, 2013

  Actual Average Record
Temperature  
Mean Temperature 42 °F 30 °F  
Max Temperature 54 °F 37 °F 67 °F (1941)
Min Temperature 30 °F 24 °F -12 °F (1886)
Degree Days  
Heating Degree Days 23 35  
Month to date heating degree days 149 169  
Since 1 July heating degree days 1642 1714  
Cooling Degree Days 0 0  
Month to date cooling degree days 0 0  
Year to date cooling degree days 662 491  
Moisture  
Dew Point 40 °F    
Average Humidity 80    
Maximum Humidity 89    
Minimum Humidity 70    
Precipitation  
Precipitation 0.02 in 0.08 in 1.32 in (1920)
Month to date precipitation 0.06 0.44  
Year to date precipitation 42.51 34.88  
Snow  
Snow 0.00 in 0.50 in 3.80 in (1977)
Month to date snowfall 0.2 2.3  
Since 1 July snowfall 6.6 7.7  
Snow Depth 0.00 in    
Sea Level Pressure  
Sea Level Pressure 29.93 in    
Wind  
Wind Speed 11 mph (South)    
Max Wind Speed 24 mph    
Max Gust Speed 34 mph    
Visibility 9 miles    
Events Rain    
T = Trace of Precipitation, MM = Missing Value Source: NWS Daily Summary

Daily Weather History Graph

Daily Weather History Graph

Search for Another Location

Airport or City:

Trip Planner

Search our weather history database for the weather conditions in past years. The results will help you decide how hot, cold, wet, or windy it might be!

Date:

Astronomy

Dec. 05, 2013 Rise Set
Actual Time 7:13 AM EST 4:13 PM EST
Civil Twilight 6:40 AM EST 4:46 PM EST
Nautical Twilight 6:03 AM EST 5:22 PM EST
Astronomical Twilight 5:28 AM EST 5:57 PM EST
Moon 9:28 AM EST (12/5) 7:34 PM EST (12/5)
Length of Visible Light 10h 05m
Length of Day
8h 59m
Waxing Crescent, 10% of the Moon is Illuminated
Dec 5
Waxing Crescent
Dec 9
First Quarter
Dec 17
Full
Dec 25
Last Quarter
Jan 1
New

Hourly Weather History & Observations

Time (EST) Temp. Windchill Dew Point Humidity Pressure Visibility Wind Dir Wind Speed Gust Speed Precip Events Conditions
12:54 AM 30.0 °F 25.2 °F 24.1 °F 79% 30.12 in 10.0 mi SSE 4.6 mph - N/A   Clear
1:54 AM 33.1 °F 26.9 °F 27.0 °F 78% 30.10 in 10.0 mi ESE 6.9 mph - N/A   Clear
2:54 AM 34.0 °F 29.8 °F 27.0 °F 75% 30.08 in 10.0 mi SSE 4.6 mph - N/A   Clear
3:40 AM 35.6 °F 32.8 °F 28.4 °F 75% 30.05 in 10.0 mi ESE 3.5 mph - N/A   Mostly Cloudy
3:54 AM 35.1 °F - 28.9 °F 78% 30.07 in 10.0 mi Calm Calm - N/A   Overcast
4:18 AM 35.6 °F 29.2 °F 28.4 °F 75% 30.04 in 10.0 mi SE 8.1 mph - N/A   Overcast
4:54 AM 37.0 °F 32.4 °F 30.0 °F 76% 30.03 in 10.0 mi SE 5.8 mph - N/A   Scattered Clouds
5:34 AM 39.2 °F 34.2 °F 32.0 °F 75% 30.00 in 10.0 mi SSE 6.9 mph - N/A   Mostly Cloudy
5:54 AM 41.0 °F 35.8 °F 33.1 °F 73% 30.00 in 10.0 mi SSE 8.1 mph - N/A   Overcast
6:54 AM 42.1 °F 35.7 °F 33.1 °F 70% 30.01 in 10.0 mi South 11.5 mph 17.3 mph N/A   Overcast
7:54 AM 43.0 °F 37.2 °F 35.1 °F 74% 30.00 in 10.0 mi South 10.4 mph 20.7 mph N/A   Overcast
8:54 AM 44.1 °F 38.1 °F 36.0 °F 73% 29.98 in 10.0 mi South 11.5 mph - N/A   Overcast
9:54 AM 46.0 °F 41.0 °F 37.0 °F 71% 29.97 in 9.0 mi South 10.4 mph 21.9 mph N/A   Overcast
10:51 AM 46.4 °F 40.1 °F 37.4 °F 71% 29.97 in 9.0 mi South 15.0 mph 21.9 mph N/A   Overcast
10:54 AM 46.0 °F 40.6 °F 37.9 °F 73% 29.97 in 9.0 mi South 11.5 mph 21.9 mph N/A   Overcast
11:54 AM 48.0 °F - 39.9 °F 74% 29.92 in 10.0 mi South 13.8 mph - N/A   Overcast
12:54 PM 48.9 °F - 41.0 °F 74% 29.89 in 10.0 mi SSW 10.4 mph - N/A   Overcast
1:54 PM 48.9 °F - 42.1 °F 77% 29.88 in 10.0 mi SSW 10.4 mph - N/A   Overcast
2:54 PM 51.1 °F - 43.0 °F 74% 29.86 in 10.0 mi South 9.2 mph - N/A   Overcast
3:54 PM 51.1 °F - 44.1 °F 77% 29.86 in 10.0 mi South 13.8 mph 21.9 mph N/A   Overcast
4:54 PM 52.0 °F - 46.0 °F 80% 29.90 in 10.0 mi South 13.8 mph - N/A   Mostly Cloudy
5:49 PM 53.6 °F - 46.4 °F 77% 29.78 in 10.0 mi SSE 21.9 mph 34.5 mph N/A   Mostly Cloudy
5:54 PM 53.1 °F - 46.9 °F 80% 29.84 in 10.0 mi South 19.6 mph 34.5 mph N/A   Mostly Cloudy
6:54 PM 53.1 °F - 48.0 °F 83% 29.83 in 10.0 mi South 17.3 mph 29.9 mph N/A   Overcast
7:15 PM 53.1 °F - 48.0 °F 83% 29.81 in 10.0 mi South 17.3 mph 29.9 mph N/A   Mostly Cloudy
7:54 PM 54.0 °F - 48.9 °F 83% 29.81 in 10.0 mi South 18.4 mph 31.1 mph N/A   Scattered Clouds
8:54 PM 54.0 °F - 48.9 °F 83% 29.81 in 9.0 mi South 17.3 mph 27.6 mph N/A   Mostly Cloudy
9:01 PM 54.0 °F - 48.9 °F 83% 29.81 in 9.0 mi South 17.3 mph - N/A   Mostly Cloudy
9:42 PM 54.0 °F - 50.0 °F 86% 29.83 in 9.0 mi SSW 15.0 mph - N/A   Overcast
9:54 PM 54.0 °F - 50.0 °F 86% 29.84 in 9.0 mi SSW 15.0 mph - N/A   Overcast
10:35 PM 54.0 °F - 50.0 °F 86% 29.84 in 9.0 mi West 10.4 mph - N/A   Overcast
10:46 PM 53.1 °F - 50.0 °F 89% 29.84 in 4.0 mi West 9.2 mph - 0.00 in Rain Light Rain
10:54 PM 52.0 °F - 50.0 °F 93% 29.86 in 3.0 mi West 9.2 mph - 0.01 in Rain Light Rain
11:21 PM 53.1 °F - 50.0 °F 89% 29.87 in 7.0 mi West 8.1 mph - 0.00 in Rain Light Rain
11:32 PM 52.0 °F - 50.0 °F 93% 29.88 in 6.0 mi West 5.8 mph - 0.01 in Rain Light Rain
11:54 PM 51.1 °F - 46.9 °F 86% 29.88 in 10.0 mi NNW 4.6 mph - 0.01 in   Overcast